Weather in Krasnoarmeysk

Russia / Moscow Oblast     56°07′15″N   38°08′27″E
temp.,
°C
wind,
m/s
gust,
m/s
humid.,
%
clouds,
%
prec.,
mm/h
press.,
hPa
HPBL,
m
1 march, mon
mon100:00−8n229323 0.0 102121
03:00−9nnw119435 0.0 102321
06:00−9w129476 0.0 102321
09:00−6wsw249582 0.1 1024150
12:00−2wsw369391 0.0 1023402
15:000wsw499294 0.1 1021555
18:000wsw41192100 0.0 1018592
21:00+1w51293100 0.0 1017680
2 march, tue
tue200:00+1w51292100 0.0 1013689
03:00+1w51291100 0.0 1012900
06:00+1w51295100 0.1 1009689
09:00+1nw51093100 0.3 1009825
12:00+1nw598893 0.2 1008979
15:00+1nw5108693 0.3 10071010
18:00−1nw4118683 0.1 1008660
21:00−2nnw4129288 0.2 1010766
3 march, wed
wed300:00−3nw4119275 0.1 1011462
03:00−4nnw5128677 0.1 1013781
06:00−5nnw6138853 0.0 1014850
09:00−5nnw5128065 0.0 1016898
12:00−1nw597917 0.0 1016858
15:00−1wnw598542 0.1 1015917
18:00−1wnw41087100 0.1 1014773
21:00−2w41090100 0.1 1014792
4 march, thu
thu400:00−2w41092100 0.1 1010785
03:00−1wsw61389100 0.2 1007780
06:00−1wsw61587100 0.1 1003816
09:00−1w71487100 0.1 10001066
12:00+1w61286100 0.1 9991077
15:00+1wsw61295100 0.2 999862
18:00−2wnw31080100 1.9 999877
21:00−4nw31089100 1.9 1002440
5 march, fri
fri500:00−6wnw39930 0.0 1004276
03:00−8nw37963 0.0 1006211
06:00−9nw249631 0.0 100890
09:00−8nw239121 0.0 1009191
12:00−4wnw227413 0.0 1010666
15:00−3wnw126636 0.0 1011895
18:00−6nw118360 0.0 101121
21:00−8nw008972 0.0 101221